Terminal Aerodrome Forecast
Issued by NWS

Home | Current Version | Previous Version | Graphics & Text | Print | Product List | Glossary On
Versions: 1 2 3 4 5 6 7 8 9 10 11 12 13 14 15 16 17 18 19 20 21
000
FTUS43 KBIS 241700
TAFMOT
TAF
KMOT 241735Z 2418/2518 20008KT P6SM VCSH SCT018 OVC022
      TEMPO 2418/2419 BKN018 OVC022
     FM242100 22015KT P6SM -SHRA BKN025 OVC040
     FM250300 26015KT P6SM -SHRA OVC015
     FM251100 28015KT P6SM VCSH OVC008
     FM251500 29015KT P6SM BKN015=

USA.gov is the U.S. government's official web portal to all federal, state and local government web resources and services.